Location: Newark
(49.5647°N, 8.2922°E)
Time: 08:28:20
(UTC+00:00)

Transit 2A - Pass Details

Date: 23 February 2020
Orbit: 597 x 962 km, 66.7° (Epoch: 08 April)

Event Time Altitude Azimuth Distance (km) Brightness Sun altitude
Rises 20:20:10 0° 324° (NW) 3,050 9.9 -32.7°
Reaches altitude 10° 20:22:25 10° 327° (NNW) 2,180 9.0 -33.0°
Enters shadow 20:24:53 30° 335° (NNW) 1,294 7.5 -33.4°
Maximum altitude 20:27:23 70° 52° (NE) 808 - -33.7°
Drops below altitude 10° 20:32:54 10° 136° (SE) 2,412 - -34.5°
Sets 20:35:29 0° 139° (SE) 3,401 - -34.9°
